| time (UTC) | temp F | wind direction | speed MPH | gust MPH | rain 1hr in | rain 24hr in | rain mn in | humidity % | barometer mb |
| 20260504190904 | 67 | 210 | 0.0 | 0.0 | 0.00 | 0.00 | 0.00 | 15 | 1010.6 |
| 20260504190404 | 66 | 248 | 0.0 | 0.0 | 0.00 | 0.00 | 0.00 | 15 | 1010.6 |
| 20260504185904 | 66 | 249 | 0.0 | 0.0 | 0.00 | 0.00 | 0.00 | 15 | 1010.7 |
| 20260504185404 | 66 | 249 | 0.0 | 0.0 | 0.00 | 0.00 | 0.00 | 14 | 1010.8 |
| 20260504184904 | 67 | 247 | 0.0 | 2.0 | 0.00 | 0.00 | 0.00 | 14 | 1010.9 |
| 20260504184404 | 67 | 226 | 0.0 | 2.0 | 0.00 | 0.00 | 0.00 | 13 | 1010.9 |
| 20260504183403 | 69 | 201 | 0.0 | 3.0 | 0.00 | 0.00 | 0.00 | 13 | 1011.0 |
| 20260504182904 | 69 | 214 | 5.0 | 10.0 | 0.00 | 0.00 | 0.00 | 12 | 1011.0 |
| 20260504181904 | 68 | 155 | 1.0 | 5.0 | 0.00 | 0.00 | 0.00 | 15 | 1011.0 |
| 20260504180904 | 66 | 105 | 0.0 | 0.0 | 0.00 | 0.00 | 0.00 | 19 | 1011.3 |
| 20260504180404 | 65 | 105 | 1.0 | 3.0 | 0.00 | 0.00 | 0.00 | 16 | 1011.4 |
| 20260504175404 | 65 | 312 | 0.0 | 0.0 | 0.00 | 0.00 | 0.00 | 17 | 1011.5 |
| 20260504174905 | 64 | 312 | 0.0 | 3.0 | 0.00 | 0.00 | 0.00 | 16 | 1011.6 |
| 20260504174404 | 64 | 258 | 0.0 | 2.0 | 0.00 | 0.00 | 0.00 | 19 | 1011.6 |
| 20260504173904 | 64 | 241 | 0.0 | 3.0 | 0.00 | 0.00 | 0.00 | 21 | 1011.7 |
| 20260504173404 | 63 | 252 | 0.0 | 3.0 | 0.00 | 0.00 | 0.00 | 20 | 1011.8 |
| 20260504172904 | 63 | 355 | 0.0 | 2.0 | 0.00 | 0.00 | 0.00 | 20 | 1011.8 |
| 20260504172405 | 62 | 355 | 0.0 | 3.0 | 0.00 | 0.00 | 0.00 | 21 | 1011.9 |
| 20260504171903 | 62 | 27 | 0.0 | 3.0 | 0.00 | 0.00 | 0.00 | 22 | 1012.0 |
| 20260504171403 | 61 | 31 | 0.0 | 0.0 | 0.00 | 0.00 | 0.00 | 21 | 1012.0 |
| 20260504170907 | 60 | 31 | 0.0 | 2.0 | 0.00 | 0.00 | 0.00 | 23 | 1012.1 |
| 20260504170404 | 60 | 31 | 0.0 | 1.0 | 0.00 | 0.00 | 0.00 | 22 | 1012.1 |
| 20260504160404 | 54 | 63 | 0.0 | 0.0 | 0.00 | 0.00 | 0.00 | 31 | 1012.5 |
| 20260504150904 | 44 | 63 | 0.0 | 0.0 | 0.00 | 0.00 | 0.00 | 44 | 1013.4 |
| 20260504140904 | 36 | 98 | 0.0 | 0.0 | 0.00 | 0.00 | 0.00 | 62 | 1014.0 |
| 20260504140404 | 35 | 98 | 1.0 | 2.0 | 0.00 | 0.00 | 0.00 | 63 | 1014.1 |
| 20260504130404 | 30 | 190 | 0.0 | 0.0 | 0.00 | 0.00 | 0.00 | 69 | 1013.9 |
| 20260504110404 | 30 | 190 | 0.0 | 0.0 | 0.00 | 0.00 | 0.00 | 66 | 1013.7 |
| 20260504100404 | 31 | 190 | 0.0 | 0.0 | 0.00 | 0.00 | 0.00 | 64 | 1013.7 |
| 20260504081904 | 34 | 190 | 0.0 | 0.0 | 0.00 | 0.00 | 0.00 | 57 | 1013.7 |
| 20260504081405 | 34 | 190 | 0.0 | 0.0 | 0.00 | 0.00 | 0.00 | 57 | 1013.7 |
| 20260504080904 | 34 | 190 | 0.0 | 0.0 | 0.00 | 0.00 | 0.00 | 56 | 1013.8 |
| 20260504080404 | 34 | 190 | 0.0 | 0.0 | 0.00 | 0.00 | 0.00 | 56 | 1013.7 |
| 20260504070406 | 36 | 190 | 0.0 | 0.0 | 0.00 | 0.00 | 0.00 | 53 | 1013.8 |
| 20260504050404 | 41 | 192 | 0.0 | 0.0 | 0.00 | 0.00 | 0.00 | 48 | 1014.1 |
| 20260504045904 | 41 | 192 | 0.0 | 0.0 | 0.00 | 0.00 | 0.00 | 47 | 1014.2 |
| 20260504044904 | 42 | 192 | 0.0 | 0.0 | 0.00 | 0.00 | 0.00 | 47 | 1014.1 |
| 20260504044404 | 42 | 192 | 0.0 | 0.0 | 0.00 | 0.00 | 0.00 | 47 | 1014.0 |
| 20260504043905 | 42 | 192 | 0.0 | 0.0 | 0.00 | 0.00 | 0.00 | 48 | 1014.1 |
| 20260504042904 | 43 | 193 | 0.0 | 0.0 | 0.00 | 0.00 | 0.00 | 44 | 1014.1 |
| 20260504042404 | 44 | 193 | 0.0 | 0.0 | 0.00 | 0.00 | 0.00 | 44 | 1014.0 |
| 20260504041904 | 45 | 193 | 0.0 | 0.0 | 0.00 | 0.00 | 0.00 | 43 | 1014.0 |
| 20260504041404 | 45 | 193 | 0.0 | 0.0 | 0.00 | 0.00 | 0.00 | 43 | 1014.0 |
| 20260504040904 | 46 | 193 | 0.0 | 0.0 | 0.00 | 0.00 | 0.00 | 40 | 1014.0 |
| 20260504040407 | 46 | 193 | 0.0 | 0.0 | 0.00 | 0.00 | 0.00 | 38 | 1013.9 |
| 20260504035904 | 47 | 193 | 0.0 | 0.0 | 0.00 | 0.00 | 0.00 | 39 | 1013.9 |
| 20260504035404 | 47 | 193 | 0.0 | 0.0 | 0.00 | 0.00 | 0.00 | 39 | 1013.9 |
| 20260504034905 | 48 | 193 | 0.0 | 0.0 | 0.00 | 0.00 | 0.00 | 37 | 1013.8 |
| 20260504033904 | 49 | 193 | 0.0 | 0.0 | 0.00 | 0.00 | 0.00 | 35 | 1013.7 |
| 20260504033404 | 50 | 193 | 0.0 | 0.0 | 0.00 | 0.00 | 0.00 | 37 | 1013.7 |
| 20260504032904 | 51 | 193 | 0.0 | 0.0 | 0.00 | 0.00 | 0.00 | 36 | 1013.6 |
| 20260504032404 | 51 | 193 | 0.0 | 0.0 | 0.00 | 0.00 | 0.00 | 33 | 1013.5 |
| 20260504031904 | 52 | 193 | 0.0 | 0.0 | 0.00 | 0.00 | 0.00 | 32 | 1013.5 |
| 20260504031405 | 52 | 193 | 0.0 | 0.0 | 0.00 | 0.00 | 0.00 | 29 | 1013.4 |
| 20260504030904 | 53 | 193 | 0.0 | 0.0 | 0.00 | 0.00 | 0.00 | 24 | 1013.3 |
| 20260504030404 | 53 | 193 | 0.0 | 0.0 | 0.00 | 0.00 | 0.00 | 21 | 1013.2 |
| 20260504025904 | 54 | 201 | 0.0 | 0.0 | 0.00 | 0.00 | 0.00 | 28 | 1013.2 |
| 20260504025404 | 55 | 201 | 0.0 | 0.0 | 0.00 | 0.00 | 0.00 | 26 | 1013.1 |
| 20260504024904 | 55 | 201 | 0.0 | 0.0 | 0.00 | 0.00 | 0.00 | 20 | 1013.1 |
| 20260504024404 | 56 | 202 | 0.0 | 0.0 | 0.00 | 0.00 | 0.00 | 18 | 1013.0 |
| 20260504023905 | 57 | 203 | 0.0 | 0.0 | 0.00 | 0.00 | 0.00 | 17 | 1013.1 |
| 20260504023404 | 58 | 236 | 0.0 | 0.0 | 0.00 | 0.00 | 0.00 | 18 | 1013.0 |
| 20260504022404 | 60 | 236 | 0.0 | 0.0 | 0.00 | 0.00 | 0.00 | 15 | 1012.9 |
| 20260504021904 | 61 | 236 | 0.0 | 0.0 | 0.00 | 0.00 | 0.00 | 14 | 1012.9 |
| 20260504021403 | 61 | 236 | 0.0 | 0.0 | 0.00 | 0.00 | 0.00 | 12 | 1012.8 |
| 20260504020904 | 61 | 236 | 0.0 | 0.0 | 0.00 | 0.00 | 0.00 | 12 | 1012.8 |
| 20260504020404 | 62 | 236 | 0.0 | 0.0 | 0.00 | 0.00 | 0.00 | 12 | 1012.8 |
| 20260504015904 | 63 | 236 | 0.0 | 0.0 | 0.00 | 0.00 | 0.00 | 10 | 1012.7 |
| 20260504014904 | 64 | 234 | 0.0 | 0.0 | 0.00 | 0.00 | 0.00 | 8 | 1012.8 |
| 20260504014404 | 65 | 229 | 0.0 | 0.0 | 0.00 | 0.00 | 0.00 | 6 | 1012.9 |
| 20260504013904 | 65 | 229 | 0.0 | 0.0 | 0.00 | 0.00 | 0.00 | 6 | 1012.8 |
| 20260504012904 | 67 | 237 | 0.0 | 2.0 | 0.00 | 0.00 | 0.00 | 6 | 1012.9 |
| 20260504012404 | 67 | 228 | 0.0 | 2.0 | 0.00 | 0.00 | 0.00 | 5 | 1012.8 |
| 20260504011404 | 68 | 232 | 2.0 | 10.0 | 0.00 | 0.00 | 0.00 | 4 | 1012.9 |
| 20260504010904 | 68 | 242 | 1.0 | 3.0 | 0.00 | 0.00 | 0.00 | 4 | 1013.0 |
| 20260504010404 | 69 | 223 | 1.0 | 3.0 | 0.00 | 0.00 | 0.00 | 5 | 1013.0 |
| 20260504005904 | 69 | 216 | 0.0 | 1.0 | 0.00 | 0.00 | 0.00 | 5 | 1013.0 |
| 20260504005405 | 69 | 217 | 0.0 | 3.0 | 0.00 | 0.00 | 0.00 | 4 | 1013.0 |
| 20260504004904 | 69 | 248 | 3.0 | 12.0 | 0.00 | 0.00 | 0.00 | 3 | 1013.0 |
| 20260504004404 | 69 | 215 | 0.0 | 6.0 | 0.00 | 0.00 | 0.00 | 4 | 1013.0 |
| 20260504003404 | 70 | 234 | 1.0 | 10.0 | 0.00 | 0.00 | 0.00 | 5 | 1013.0 |
| 20260504002904 | 70 | 249 | 1.0 | 3.0 | 0.00 | 0.00 | 0.00 | 4 | 1013.0 |
| 20260504002404 | 70 | 221 | 2.0 | 7.0 | 0.00 | 0.00 | 0.00 | 5 | 1013.0 |
| 20260504001904 | 70 | 209 | 2.0 | 8.0 | 0.00 | 0.00 | 0.00 | 7 | 1013.0 |
| 20260504000904 | 70 | 236 | 1.0 | 7.0 | 0.00 | 0.00 | 0.00 | 6 | 1013.1 |
| 20260504000404 | 70 | 244 | 2.0 | 7.0 | 0.00 | 0.00 | 0.00 | 6 | 1013.2 |
| 20260503235404 | 70 | 230 | 1.0 | 9.0 | 0.00 | 0.00 | 0.00 | 6 | 1013.2 |
| 20260503234904 | 70 | 229 | 6.0 | 12.0 | 0.00 | 0.00 | 0.00 | 6 | 1013.3 |
| 20260503233404 | 70 | 230 | 7.0 | 13.0 | 0.00 | 0.00 | 0.00 | 6 | 1013.2 |
| 20260503232404 | 70 | 257 | 1.0 | 12.0 | 0.00 | 0.00 | 0.00 | 7 | 1013.3 |
| 20260503231904 | 70 | 252 | 4.0 | 12.0 | 0.00 | 0.00 | 0.00 | 6 | 1013.3 |
| 20260503231404 | 70 | 231 | 2.0 | 14.0 | 0.00 | 0.00 | 0.00 | 6 | 1013.4 |
| 20260503230904 | 71 | 244 | 5.0 | 12.0 | 0.00 | 0.00 | 0.00 | 7 | 1013.5 |
| 20260503230404 | 71 | 236 | 5.0 | 12.0 | 0.00 | 0.00 | 0.00 | 7 | 1013.4 |
| 20260503225904 | 71 | 230 | 7.0 | 13.0 | 0.00 | 0.00 | 0.00 | 7 | 1013.5 |
| 20260503225404 | 71 | 248 | 1.0 | 10.0 | 0.00 | 0.00 | 0.00 | 6 | 1013.4 |
| 20260503224904 | 71 | 241 | 5.0 | 14.0 | 0.00 | 0.00 | 0.00 | 6 | 1013.3 |
| 20260503224404 | 71 | 229 | 5.0 | 13.0 | 0.00 | 0.00 | 0.00 | 6 | 1013.4 |
| 20260503223404 | 69 | 245 | 3.0 | 12.0 | 0.00 | 0.00 | 0.00 | 8 | 1013.5 |
| 20260503222904 | 68 | 224 | 2.0 | 12.0 | 0.00 | 0.00 | 0.00 | 9 | 1013.5 |
| 20260503222404 | 67 | 223 | 1.0 | 3.0 | 0.00 | 0.00 | 0.00 | 10 | 1013.7 |
| 20260503221904 | 66 | 218 | 5.0 | 9.0 | 0.00 | 0.00 | 0.00 | 9 | 1013.8 |
| 20260503221404 | 66 | 238 | 0.0 | 1.0 | 0.00 | 0.00 | 0.00 | 8 | 1013.8 |
| 20260503220404 | 67 | 129 | 0.0 | 1.0 | 0.00 | 0.00 | 0.00 | 8 | 1014.0 |
| 20260503215404 | 67 | 67 | 0.0 | 0.0 | 0.00 | 0.00 | 0.00 | 8 | 1014.1 |
| 20260503214904 | 66 | 67 | 0.0 | 0.0 | 0.00 | 0.00 | 0.00 | 7 | 1014.2 |
| 20260503214404 | 67 | 67 | 0.0 | 1.0 | 0.00 | 0.00 | 0.00 | 6 | 1014.2 |
| 20260503213904 | 67 | 69 | 0.0 | 2.0 | 0.00 | 0.00 | 0.00 | 7 | 1014.2 |
| 20260503212904 | 68 | 236 | 3.0 | 10.0 | 0.00 | 0.00 | 0.00 | 7 | 1014.3 |
| 20260503212404 | 69 | 254 | 0.0 | 8.0 | 0.00 | 0.00 | 0.00 | 6 | 1014.3 |
| 20260503211404 | 70 | 275 | 0.0 | 3.0 | 0.00 | 0.00 | 0.00 | 6 | 1014.4 |
| 20260503210905 | 70 | 141 | 0.0 | 2.0 | 0.00 | 0.00 | 0.00 | 4 | 1014.4 |
| 20260503210405 | 71 | 231 | 0.0 | 1.0 | 0.00 | 0.00 | 0.00 | 4 | 1014.4 |
| 20260503205904 | 71 | 235 | 5.0 | 12.0 | 0.00 | 0.00 | 0.00 | 6 | 1014.7 |
| 20260503205404 | 72 | 205 | 2.0 | 9.0 | 0.00 | 0.00 | 0.00 | 5 | 1014.5 |
| 20260503204904 | 71 | 217 | 2.0 | 6.0 | 0.00 | 0.00 | 0.00 | 6 | 1014.6 |
| 20260503203904 | 70 | 218 | 3.0 | 6.0 | 0.00 | 0.00 | 0.00 | 4 | 1014.8 |
| 20260503202904 | 70 | 224 | 1.0 | 12.0 | 0.00 | 0.00 | 0.00 | 4 | 1014.8 |
| 20260503202404 | 70 | 231 | 5.0 | 13.0 | 0.00 | 0.00 | 0.00 | 4 | 1015.0 |
| 20260503201904 | 70 | 224 | 4.0 | 12.0 | 0.00 | 0.00 | 0.00 | 6 | 1015.0 |
| 20260503201403 | 70 | 216 | 1.0 | 10.0 | 0.00 | 0.00 | 0.00 | 5 | 1015.0 |
| 20260503200907 | 69 | 200 | 5.0 | 12.0 | 0.00 | 0.00 | 0.00 | 6 | 1015.1 |
| 20260503200404 | 69 | 218 | 7.0 | 12.0 | 0.00 | 0.00 | 0.00 | 4 | 1015.1 |
| 20260503195904 | 69 | 199 | 8.0 | 16.0 | 0.00 | 0.00 | 0.00 | 6 | 1015.1 |
| 20260503195404 | 69 | 217 | 7.0 | 13.0 | 0.00 | 0.00 | 0.00 | 6 | 1015.2 |
| 20260503194904 | 69 | 221 | 6.0 | 14.0 | 0.00 | 0.00 | 0.00 | 6 | 1015.2 |
| 20260503193404 | 68 | 204 | 3.0 | 12.0 | 0.00 | 0.00 | 0.00 | 8 | 1015.3 |
| 20260503192904 | 67 | 255 | 2.0 | 6.0 | 0.00 | 0.00 | 0.00 | 11 | 1015.3 |
| 20260503192404 | 67 | 33 | 2.0 | 6.0 | 0.00 | 0.00 | 0.00 | 8 | 1015.4 |
| 20260503191904 | 68 | 254 | 5.0 | 14.0 | 0.00 | 0.00 | 0.00 | 8 | 1015.5 |
| 20260503191404 | 69 | 253 | 3.0 | 7.0 | 0.00 | 0.00 | 0.00 | 8 | 1015.5 |